Home   Weather   Samsun   Past weeks

Flag for Turkey Past Weather in Samsun, Turkey — Yesterday and Last 2 Weeks

Now
43 °F

Passing clouds.


Feels Like: 40 °F
Forecast: 29 / 43 °F
Wind: 5 mph from East

Location: Samsun / Carsamba

Current Time: Dec 8, 2016 at 5:12:19 pm

Latest Report: Dec 8, 2016 at 3:50 pm


Visibility: N/A

Pressure: 30.60 "Hg

Humidity: 49%

Dew Point: 25 °F

Location of SamsunLocation

Past Weather in Samsun — Graph

°F

Samsun Temperature Yesterday

Maximum temperature yesterday: 48 °F (at 10:50 am)
Minimum temperature yesterday: 28 °F (at 5:50 am)
Average temperature yesterday: 39 °F

High & Low Weather Summary for the Past Weeks

 TemperatureHumidityPressure
High70 °F (Nov 28, 11:50 am)100% (Nov 25, 7:50 am)30.72 "Hg (Nov 25, 7:50 am)
Low27 °F (Dec 6, 5:50 am)15% (Nov 28, 11:50 am)29.74 "Hg (Dec 2, 11:50 pm)
Average45 °F70%30.17 "Hg
* Reported Nov 23 3:50 pm — Dec 8 3:50 pm, Samsun, Weather by CustomWeather, © 2016

Note: Actual official high and low records may vary slightly from our data, if they occured in-between our weather recording intervals... More about our weather records

Advertising

Samsun Weather History for the Previous 24 Hours

Scroll right to see more
 ConditionsComfort  
Time TempWeatherWind HumidityBarometerVisibility
3:50 pm
Thu, Dec 8
43 °FPassing clouds.5 mph49%30.60 "HgN/A
2:50 pm43 °FPassing clouds.2 mph53%30.63 "HgN/A
1:50 pm43 °FPassing clouds.3 mph57%30.63 "HgN/A
12:50 pm41 °FBroken clouds.3 mph66%30.66 "HgN/A
11:50 am37 °FBroken clouds.2 mph81%30.69 "HgN/A
10:50 am34 °FSnow flurries. Partly sunny.5 mph93%30.72 "HgN/A
9:50 am32 °FSnow flurries. Partly sunny.6 mph100%30.72 "Hg2 mi
8:50 am32 °FSnow flurries. Broken clouds.5 mph100%30.72 "Hg2 mi
8:02 am32 °FSnow flurries. Broken clouds.3 mph100%30.72 "Hg2 mi
6:50 am32 °FSnow flurries. Passing clouds.6 mph100%30.72 "Hg3 mi
5:50 am32 °FSnow flurries. Partly cloudy.6 mph100%30.69 "Hg2 mi
4:50 am32 °FSnow flurries. Partly cloudy.7 mph100%30.69 "Hg2 mi
4:01 am34 °FSnow flurries. Partly cloudy.3 mph93%30.69 "Hg2 mi
2:50 am36 °FSprinkles. Partly cloudy.5 mph81%30.66 "HgN/A
1:50 am37 °FSprinkles. Partly cloudy.7 mph70%30.66 "HgN/A
12:50 am39 °FSprinkles. Partly cloudy.9 mph65%30.63 "HgN/A
11:50 pm
Wed, Dec 7
39 °FSprinkles. Partly cloudy.8 mph70%30.60 "Hg5 mi
10:50 pm37 °FSprinkles. Partly cloudy.12 mph81%30.60 "Hg4 mi
9:50 pm39 °FSprinkles. Partly cloudy.10 mph87%30.54 "Hg4 mi
8:50 pm39 °FRain showers. Partly cloudy.10 mph87%30.54 "Hg4 mi
7:50 pm41 °FRain showers. Partly cloudy.10 mph81%30.51 "Hg4 mi
6:50 pm41 °FSprinkles. Partly cloudy.13 mph87%30.48 "Hg5 mi
5:50 pm41 °FSprinkles. Partly cloudy.16 mph87%30.42 "HgN/A
Weather by CustomWeather, © 2016

See weather overviewHow to use our weather pages